Location: Newark
(44.2886°N, 4.8431°E)
Time: 15:14:04
(UTC+00:00)

ZACube-1 - Pass Details

Date: 29 November 2020
Orbit: 584 x 665 km, 97.6° (Epoch: 14 January)

Event Time Altitude Azimuth Distance (km) Brightness Sun altitude
Rises 04:56:28 0° 13° (NNE) 2,824 ? -20.5°
Reaches altitude 10° 04:58:38 10° 15° (NNE) 1,922 ? -20.2°
Maximum altitude 05:02:48 78° 102° (ESE) 611 ? -19.4°
Drops below altitude 10° 05:07:00 10° 189° (S) 1,936 ? -18.7°
Sets 05:09:11 0° 191° (S) 2,846 ? -18.3°
